| time (UTC) | temp F | wind direction | speed MPH | gust MPH | rain 1hr in | rain 24hr in | rain mn in | humidity % | barometer mb |
| 20260509010052 | 74 | 131 | 3.0 | 8.0 | 0.00 | 0.02 | 0.02 | 85 | 1007.6 |
| 20260509004553 | 75 | 86 | 1.0 | 5.0 | 0.00 | 0.02 | 0.02 | 84 | 1007.7 |
| 20260509003050 | 75 | 88 | 1.0 | 6.0 | 0.00 | 0.02 | 0.02 | 83 | 1007.7 |
| 20260509001547 | 75 | 86 | 1.0 | 7.0 | 0.00 | 0.02 | 0.02 | 83 | 1007.7 |
| 20260509000047 | 75 | 98 | 1.0 | 5.0 | 0.00 | 0.02 | 0.02 | 83 | 1007.8 |
| 20260508234550 | 76 | 76 | 0.0 | 4.0 | 0.00 | 0.02 | 0.02 | 82 | 1007.9 |
| 20260508233050 | 76 | 54 | 1.0 | 5.0 | 0.00 | 0.02 | 0.02 | 81 | 1007.9 |
| 20260508231544 | 76 | 130 | 3.0 | 7.0 | 0.00 | 0.02 | 0.02 | 80 | 1007.8 |
| 20260508230107 | 77 | 40 | 1.0 | 5.0 | 0.00 | 0.02 | 0.02 | 79 | 1007.8 |
| 20260508224549 | 77 | 81 | 3.0 | 8.0 | 0.00 | 0.02 | 0.02 | 79 | 1007.8 |
| 20260508223041 | 77 | 136 | 3.0 | 8.0 | 0.00 | 0.02 | 0.02 | 78 | 1007.9 |
| 20260508221540 | 77 | 120 | 2.0 | 8.0 | 0.00 | 0.02 | 0.02 | 77 | 1007.9 |
| 20260508220108 | 77 | 108 | 2.0 | 7.0 | 0.00 | 0.02 | 0.02 | 76 | 1008.1 |
| 20260508214538 | 78 | 96 | 3.0 | 7.0 | 0.00 | 0.02 | 0.02 | 75 | 1008.3 |
| 20260508213037 | 78 | 107 | 3.0 | 8.0 | 0.00 | 0.02 | 0.02 | 75 | 1008.2 |
| 20260508211540 | 77 | 145 | 3.0 | 9.0 | 0.00 | 0.02 | 0.02 | 76 | 1008.5 |
| 20260508210033 | 77 | 39 | 2.0 | 7.0 | 0.00 | 0.02 | 0.02 | 77 | 1008.8 |
| 20260508204528 | 76 | 52 | 2.0 | 9.0 | 0.00 | 0.02 | 0.02 | 76 | 1009.1 |
| 20260508203023 | 76 | 5 | 1.0 | 9.0 | 0.00 | 0.02 | 0.02 | 77 | 1009.4 |
| 20260508201531 | 76 | 137 | 4.0 | 10.0 | 0.00 | 0.02 | 0.02 | 75 | 1009.6 |
| 20260508200018 | 76 | 97 | 3.0 | 8.0 | 0.00 | 0.02 | 0.02 | 77 | 1009.7 |
| 20260508194514 | 75 | 123 | 1.0 | 6.0 | 0.00 | 0.02 | 0.02 | 78 | 1009.9 |
| 20260508193010 | 74 | 11 | 2.0 | 8.0 | 0.00 | 0.02 | 0.02 | 76 | 1010.2 |
| 20260508191515 | 74 | 5 | 2.0 | 9.0 | 0.00 | 0.02 | 0.02 | 77 | 1010.2 |
| 20260508190004 | 74 | 99 | 2.0 | 7.0 | 0.00 | 0.02 | 0.02 | 78 | 1010.4 |
| 20260508184601 | 73 | 9 | 2.0 | 4.0 | 0.00 | 0.02 | 0.02 | 78 | 1010.7 |
| 20260508184500 | 73 | 5 | 2.0 | 4.0 | 0.00 | 0.02 | 0.02 | 79 | 1010.7 |
| 20260508183059 | 72 | 74 | 1.0 | 4.0 | 0.00 | 0.02 | 0.02 | 80 | 1010.9 |
| 20260508181607 | 72 | 36 | 1.0 | 4.0 | 0.00 | 0.02 | 0.02 | 80 | 1011.1 |
| 20260508180104 | 72 | 118 | 2.0 | 5.0 | 0.00 | 0.02 | 0.02 | 79 | 1011.2 |
| 20260508174602 | 71 | 321 | 1.0 | 5.0 | 0.00 | 0.02 | 0.02 | 79 | 1011.3 |
| 20260508173046 | 70 | 327 | 2.0 | 6.0 | 0.00 | 0.02 | 0.02 | 81 | 1011.4 |
| 20260508171543 | 70 | 126 | 1.0 | 5.0 | 0.00 | 0.02 | 0.02 | 81 | 1011.7 |
| 20260508170039 | 68 | 46 | 0.0 | 3.0 | 0.00 | 0.02 | 0.02 | 82 | 1012.1 |
| 20260508164536 | 68 | 104 | 0.0 | 2.0 | 0.00 | 0.02 | 0.02 | 82 | 1012.4 |
| 20260508163038 | 67 | 84 | 0.0 | 2.0 | 0.00 | 0.02 | 0.02 | 83 | 1012.4 |
| 20260508161535 | 67 | 144 | 0.0 | 2.0 | 0.00 | 0.02 | 0.02 | 82 | 1012.6 |
| 20260508160031 | 67 | 117 | 1.0 | 4.0 | 0.00 | 0.02 | 0.02 | 82 | 1012.7 |
| 20260508154529 | 67 | 130 | 1.0 | 3.0 | 0.00 | 0.02 | 0.02 | 83 | 1012.9 |
| 20260508153027 | 66 | 159 | 0.0 | 4.0 | 0.00 | 0.02 | 0.02 | 84 | 1012.9 |
| 20260508151527 | 66 | 115 | 2.0 | 4.0 | 0.00 | 0.02 | 0.02 | 84 | 1012.8 |
| 20260508150026 | 65 | 110 | 1.0 | 5.0 | 0.00 | 0.02 | 0.02 | 84 | 1012.9 |
| 20260508144521 | 65 | 101 | 1.0 | 4.0 | 0.00 | 0.02 | 0.02 | 86 | 1012.8 |
| 20260508143024 | 64 | 93 | 0.0 | 4.0 | 0.00 | 0.02 | 0.02 | 86 | 1012.8 |
| 20260508141515 | 64 | 112 | 0.0 | 3.0 | 0.00 | 0.02 | 0.02 | 87 | 1012.9 |
| 20260508140024 | 63 | 103 | 1.0 | 4.0 | 0.00 | 0.02 | 0.02 | 90 | 1012.9 |
| 20260508134515 | 61 | 360 | 0.0 | 1.0 | 0.00 | 0.02 | 0.02 | 92 | 1012.8 |
| 20260508133008 | 61 | 146 | 0.0 | 3.0 | 0.00 | 0.02 | 0.02 | 92 | 1013.2 |
| 20260508131505 | 60 | 134 | 0.0 | 1.0 | 0.00 | 0.02 | 0.02 | 92 | 1013.4 |
| 20260508130006 | 60 | 59 | 0.0 | 1.0 | 0.00 | 0.02 | 0.02 | 92 | 1013.1 |
| 20260508124509 | 59 | 112 | 0.0 | 0.0 | 0.00 | 0.02 | 0.02 | 92 | 1013.2 |
| 20260508123002 | 59 | 112 | 0.0 | 0.0 | 0.00 | 0.02 | 0.02 | 92 | 1013.3 |
| 20260508121601 | 59 | 115 | 0.0 | 0.0 | 0.00 | 0.02 | 0.02 | 92 | 1013.4 |
| 20260508120100 | 59 | 114 | 0.0 | 0.0 | 0.00 | 0.02 | 0.02 | 92 | 1013.5 |
| 20260508114559 | 59 | 355 | 0.0 | 0.0 | 0.00 | 0.02 | 0.02 | 92 | 1013.8 |
| 20260508113105 | 59 | 355 | 0.0 | 0.0 | 0.00 | 0.02 | 0.02 | 92 | 1014.0 |
| 20260508111559 | 59 | 355 | 0.0 | 0.0 | 0.00 | 0.02 | 0.02 | 92 | 1013.7 |
| 20260508110058 | 59 | 328 | 0.0 | 1.0 | 0.00 | 0.02 | 0.02 | 92 | 1013.6 |
| 20260508104601 | 59 | 312 | 0.0 | 2.0 | 0.01 | 0.02 | 0.02 | 91 | 1013.5 |
| 20260508103057 | 59 | 312 | 0.0 | 1.0 | 0.02 | 0.02 | 0.02 | 91 | 1014.0 |
| 20260508101559 | 60 | 302 | 0.0 | 1.0 | 0.02 | 0.02 | 0.02 | 91 | 1014.0 |
| 20260508100055 | 60 | 302 | 0.0 | 3.0 | 0.02 | 0.02 | 0.02 | 90 | 1014.3 |
| 20260508094612 | 60 | 321 | 0.0 | 3.0 | 0.01 | 0.01 | 0.01 | 89 | 1014.4 |
| 20260508093053 | 60 | 323 | 0.0 | 3.0 | 0.00 | 0.00 | 0.00 | 87 | 1014.6 |
| 20260508091548 | 60 | 270 | 0.0 | 2.0 | 0.00 | 0.00 | 0.00 | 88 | 1014.2 |
| 20260508090051 | 59 | 270 | 0.0 | 1.0 | 0.00 | 0.00 | 0.00 | 88 | 1014.0 |
| 20260508084544 | 59 | 270 | 0.0 | 1.0 | 0.00 | 0.00 | 0.00 | 89 | 1013.7 |
| 20260508083041 | 59 | 270 | 0.0 | 0.0 | 0.00 | 0.00 | 0.00 | 90 | 1014.0 |
| 20260508081559 | 58 | 270 | 0.0 | 0.0 | 0.00 | 0.00 | 0.00 | 91 | 1013.6 |
| 20260508080046 | 58 | 270 | 0.0 | 0.0 | 0.00 | 0.00 | 0.00 | 91 | 1013.5 |
| 20260508074538 | 58 | 270 | 0.0 | 0.0 | 0.00 | 0.00 | 0.00 | 91 | 1013.5 |
| 20260508073042 | 58 | 270 | 0.0 | 0.0 | 0.00 | 0.00 | 0.00 | 91 | 1013.6 |
| 20260508071542 | 57 | 270 | 0.0 | 0.0 | 0.00 | 0.00 | 0.00 | 91 | 1013.8 |
| 20260508070032 | 57 | 270 | 0.0 | 0.0 | 0.00 | 0.00 | 0.00 | 90 | 1014.2 |
| 20260508064532 | 57 | 270 | 0.0 | 0.0 | 0.00 | 0.00 | 0.00 | 90 | 1014.5 |
| 20260508063044 | 58 | 270 | 0.0 | 0.0 | 0.00 | 0.00 | 0.00 | 89 | 1014.7 |
| 20260508061529 | 58 | 270 | 0.0 | 0.0 | 0.00 | 0.00 | 0.00 | 89 | 1014.6 |
| 20260508060034 | 58 | 270 | 0.0 | 0.0 | 0.00 | 0.00 | 0.00 | 89 | 1014.6 |
| 20260508054529 | 58 | 270 | 0.0 | 1.0 | 0.00 | 0.00 | 0.00 | 89 | 1014.4 |
| 20260508053025 | 58 | 270 | 0.0 | 0.0 | 0.00 | 0.00 | 0.00 | 88 | 1014.4 |
| 20260508051525 | 58 | 270 | 0.0 | 0.0 | 0.00 | 0.00 | 0.00 | 88 | 1014.4 |
| 20260508050022 | 58 | 270 | 0.0 | 0.0 | 0.00 | 0.00 | 0.00 | 88 | 1014.7 |
| 20260508044528 | 59 | 270 | 0.0 | 0.0 | 0.00 | 0.00 | 0.00 | 88 | 1014.9 |
| 20260508043022 | 59 | 153 | 0.0 | 0.0 | 0.00 | 0.00 | 0.00 | 87 | 1014.8 |
| 20260508041521 | 59 | 153 | 0.0 | 1.0 | 0.00 | 0.00 | 0.00 | 86 | 1014.8 |
| 20260508040020 | 60 | 160 | 0.0 | 0.0 | 0.00 | 0.00 | 0.00 | 85 | 1015.2 |
| 20260508034520 | 60 | 160 | 0.0 | 2.0 | 0.00 | 0.00 | 0.00 | 85 | 1015.4 |
| 20260508033022 | 60 | 160 | 0.0 | 1.0 | 0.00 | 0.00 | 0.00 | 84 | 1015.5 |
| 20260508031518 | 60 | 264 | 1.0 | 2.0 | 0.00 | 0.00 | 0.00 | 84 | 1015.0 |
| 20260508030018 | 60 | 294 | 0.0 | 1.0 | 0.00 | 0.00 | 0.00 | 83 | 1014.8 |
| 20260508024531 | 61 | 72 | 0.0 | 2.0 | 0.00 | 0.00 | 0.00 | 83 | 1014.1 |
| 20260508023024 | 61 | 29 | 0.0 | 1.0 | 0.00 | 0.00 | 0.00 | 82 | 1013.7 |
| 20260508021517 | 61 | 29 | 0.0 | 2.0 | 0.00 | 0.00 | 0.00 | 81 | 1013.7 |
| 20260508020016 | 62 | 71 | 0.0 | 3.0 | 0.00 | 0.00 | 0.00 | 80 | 1013.5 |
| 20260508014515 | 62 | 77 | 0.0 | 2.0 | 0.00 | 0.00 | 0.00 | 80 | 1013.3 |
| 20260508013013 | 62 | 40 | 0.0 | 3.0 | 0.00 | 0.00 | 0.00 | 78 | 1013.6 |
| 20260508011515 | 63 | 22 | 1.0 | 3.0 | 0.00 | 0.00 | 0.00 | 77 | 1013.4 |